STARLINK-36532, 67628

Orbit data source: Space-Track

STARLINK-36532, 67628 is a payload satellite owned by SpaceX/Seattle (US) in LEO that was launched on Fri, 30 Jan 2026 UTC via an FALCON 9 launch vehicle from the Air Force Eastern Test Range (AFETR). Payload-class satellites include a variety of spacecraft equipped with specific instruments for various scientific and technological missions. These include communications satellites like Starlink; space stations such as the ISS; scientific satellites like the Hubble; Earth observation satellites from companies like Planet Labs, Umbra, and HawkEye 360; GPS; miniature CubeSats for education and research; and military/defense satellites.

Loading next visibility...
Identifier
67628, 2026-020M
Orbit
LEO
Country
Flag of USUS
Related business
Manufacturer
SpaceX/Seattle
Mission
Operational Commercial Communications
Bus & Motor
STARLINK V2MO, Unknown motor
Mass
575 kg wet, ~530 kg dry
Launch date (UTC)
2026-01-30 (5 months ago)
Launch vehicle
FALCON 9
Launch site
Air Force Eastern Test Range (AFETR)
Object type
Payload
Rocket body
Debris
Shape & HBR
Box + 2 Pan, 17.7 m
Radar Cross Section
36.964 m², Large (>1 m²)

Expand to show TLE details & history
Last TLE update: 12 hours ago

TLE from 12 hours ago
0 STARLINK-36532
1 67628U 26020M   26171.33345859  .00013417  00000-0  49604-3 0  9998
2 67628  42.9987 279.9183 0002662 292.2229  67.8340 15.27589828 21818
Epoch: 2026-06-20T08:00Z
TLE epoch observation values (Epoch: 2026-06-20T08:00:10.822Z)
Latitude
-0.00001°
Longitude
-108.67639°
Altitude
482.106 km
Speed
7.627 km/s
True Right ascension
18h 39m 40s
True Declination
0° 00' 00"
Sunlit
Object was in full shadow at epoch
Visualization orbit readout
Latitude
Unknown
Longitude
Unknown
Altitude
Unknown
Speed
Unknown
Apparent Right ascension
Unknown
Apparent Declination
Unknown
Sunlit
N/A
Visualization observer readout
Local Sidereal Time
07:21:14
Azimuth
Unknown
Elevation
Unknown
Doppler factor
Unknown
Orbital elements
Apogee altitude
486.792 km
Perigee altitude
483.138 km
Semi-major axis
6,863.102 km
Eccentricity
0.00027
Inclination
42.9987°
RAAN
279.9183°
Arg. of periapsis
292.2229°
True anomaly
67.86225°
Mean anomaly
67.834°
Eccentric anomaly
67.84813°
Mean motion
3.81735 °/min
Orbital period
94.31 mins
BSTAR
0.00049604
Loading maneuver chart data...
Computing Atmospheric mass density...
Loading historical data...
Loading historical data...
Loading historical data...
Loading historical data...
Loading historical data...
Loading historical data...
Loading historical data...

Documentation

Showing up to 5 results
|